Location: Pcim
(49.7500°N, 19.9670°E)
Time: 03:29:23
(UTC+02:00)

AO-91 - Pass Details

Date: 28 April 2024
Orbit: 441 x 736 km, 97.6° (Epoch: 23 May)

Event Time Altitude Azimuth Distance (km) Brightness Sun altitude
Rises 23:04:59 0° 5° (N) 2,451 ? -22.6°
Reaches altitude 10° 23:07:05 10° 356° (N) 1,587 ? -22.7°
Maximum altitude 23:10:10 34° 290° (WNW) 782 ? -22.9°
Enters shadow 23:10:48 31° 266° (W) 838 ? -22.9°
